Location: Archamps
(46.1365°N, 6.1329°E)
Time: 00:41:10
(UTC+00:00)

Cosmos 44 - Pass Details

Date: 28 January 2023
Orbit: 582 x 777 km, 65.1° (Epoch: 24 March)

Event Time Altitude Azimuth Distance (km) Brightness Sun altitude
Rises 18:22:46 0° 235° (SW) 2,801 7.5 -18.8°
Reaches altitude 10° 18:25:04 10° 243° (WSW) 1,915 6.6 -19.2°
Maximum altitude 18:29:07 40° 314° (NW) 897 4.2 -19.9°
Enters shadow 18:31:56 19° 15° (NNE) 1,491 4.8 -20.4°
